Dewpoint
36 36 37 37 38 37 37 37 38 38 37 35 35 34 34 34 35 35 35 34 35 36 36 36 36 36 35 33 33 33 32 32 31 33 34 34 32 31 30 30 29 29 29 29 29 29 29 28 29 31 32 33 31 31 30 31 30 29 29 29 30 30 29 29 29 29 29 29 30
35 36 38 41 40 38 37 37 38 38 37 35 35 34 34 34 35 35 35 34 35 36 36 36 35 34 33 32 33 32 31 31 30 31 32 31 30 29 29 28 28 28 28 28 28 28 29 28 29 30 31 31 30 30 29 30 29 29 28 28 28 29 29 29 29 29 28 29 29
34 35 36 37 36 36 36 36 35 34 33 33 33 33 33 33 34 35 35 34 33 33 33 34 34 33 33 32 31 30 30 30 29 30 30 30 29 28 28 28 27 28 28 29 28 28 28 27 28 30 31 29 29 28 28 28 29 29 28 28 28 29 30 29 29 29 29 30 29
33 34 34 34 34 34 34 35 34 33 33 33 31 32 33 33 33 34 33 33 32 32 33 33 33 33 33 33 31 30 30 31 31 31 30 29 29 28 28 27 27 26 26 26 26 26 26 26 28 29 29 28 28 28 28 28 28 29 29 28 29 29 29 29 29 30 30 30 29
33 33 33 33 33 33 33 33 33 33 32 33 32 32 32 32 33 33 32 33 33 33 33 32 32 33 33 33 31 30 29 30 33 32 30 29 28 28 27 26 26 26 26 26 26 26 25 25 27 28 28 27 28 28 28 28 27 28 28 28 29 29 29 29 29 30 30 31 29
33 32 31 31 31 31 31 31 31 31 31 32 32 32 32 33 33 33 33 33 33 33 32 33 33 34 34 32 30 29 28 28 28 28 28 27 27 27 26 26 26 26 26 25 25 25 25 25 27 28 28 28 28 28 27 27 27 27 28 28 28 28 29 29 29 30 30 29 28
32 32 31 30 30 30 30 30 29 29 29 30 30 31 32 32 31 31 31 32 32 32 33 35 34 33 32 30 29 28 28 28 27 27 27 27 27 26 26 26 25 25 25 25 25 25 25 26 27 28 28 30 29 28 28 27 27 27 27 27 28 28 28 28 29 29 29 28 27
31 32 31 30 30 30 29 29 29 29 30 31 31 31 30 30 30 30 30 30 30 31 33 34 32 30 29 28 28 28 28 28 27 27 27 27 26 26 26 26 26 26 26 26 26 26 26 27 27 28 28 28 28 28 28 27 26 26 26 27 27 28 28 28 28 28 28 27 26
31 31 30 29 29 29 28 28 28 29 30 30 30 30 29 30 30 29 30 31 32 33 32 31 30 28 28 27 28 28 28 28 28 27 27 27 27 27 27 27 27 27 27 27 27 27 27 27 28 28 28 28 28 28 27 26 25 25 26 27 27 28 28 28 28 27 27 26 25
31 30 29 29 28 29 28 27 28 28 29 28 28 28 29 33 32 31 30 32 33 32 30 29 28 28 28 28 28 28 28 28 28 28 28 28 28 28 28 28 27 27 28 28 28 28 27 28 28 28 28 28 28 27 26 25 25 25 26 27 28 27 27 27 26 26 26 26 25
30 29 29 29 29 29 29 27 28 29 29 28 28 27 28 30 30 30 30 31 30 29 29 29 28 28 28 28 28 28 28 28 28 28 28 28 28 28 27 27 27 27 27 28 28 28 28 28 28 28 27 27 27 27 26 26 26 25 25 26 27 26 26 26 26 26 26 26 25
29 29 28 28 28 28 27 27 28 28 28 28 28 28 27 28 28 29 30 29 29 29 29 29 29 28 28 29 28 29 29 28 28 28 28 28 27 27 27 27 27 27 27 27 28 28 28 28 27 27 27 27 27 27 27 26 26 25 25 25 25 25 26 26 26 26 26 26 25
28 28 28 27 26 26 26 27 27 27 27 28 28 28 28 28 28 29 30 28 29 29 29 29 29 29 29 28 28 28 28 28 27 27 28 28 27 27 27 27 27 27 27 27 27 27 27 27 27 26 26 26 27 27 27 26 26 25 26 25 25 25 26 26 26 26 26 25 26
27 27 27 26 26 26 27 27 27 27 27 27 27 28 28 27 28 29 29 29 29 29 29 29 29 29 29 28 28 28 28 27 27 27 27 27 27 27 27 27 27 26 26 27 27 27 27 27 26 26 26 26 26 27 27 26 26 25 25 25 26 26 26 26 26 26 26 25 26
27 26 26 25 26 26 27 27 28 28 28 27 27 27 27 27 28 29 29 28 28 28 28 28 28 28 29 28 28 27 27 27 27 27 27 27 27 27 27 27 26 26 26 26 26 26 26 26 25 25 25 26 26 26 26 26 25 25 25 25 25 26 26 26 26 26 26 25 26
27 26 25 25 26 27 27 27 28 28 28 28 27 27 27 27 28 28 29 28 28 28 28 28 28 27 27 28 28 28 27 27 27 26 26 27 27 27 26 26 26 26 25 25 25 26 26 25 25 25 25 25 26 26 26 25 25 25 25 25 25 26 26 27 27 26 26 26 26
26 26 25 25 26 27 27 27 27 27 27 27 27 27 27 27 27 28 29 29 29 28 28 27 27 27 27 27 28 28 27 27 27 27 27 27 27 27 26 26 26 26 25 25 25 25 25 25 25 25 25 25 25 25 25 25 25 25 25 25 26 26 26 27 27 27 26 26 27
26 26 25 26 26 27 26 26 26 26 26 26 26 27 27 27 27 28 28 29 28 28 27 27 26 26 26 26 26 27 27 27 27 27 27 27 26 26 26 26 26 25 25 24 24 24 25 25 25 25 25 25 25 25 25 25 25 25 25 26 26 26 26 26 26 26 26 26 28
26 26 26 26 26 26 27 27 27 26 26 26 26 27 27 27 27 27 28 27 28 28 27 27 26 26 26 26 26 27 28 28 27 27 26 26 26 25 25 25 25 24 24 24 24 24 24 25 25 24 24 25 25 25 25 25 25 25 25 25 25 25 25 25 25 26 26 27 28
26 26 26 26 26 26 26 27 27 26 26 26 26 26 27 27 27 27 28 27 28 27 27 26 26 26 26 26 26 26 27 27 27 26 26 25 25 25 25 25 24 24 23 23 23 23 24 24 24 24 24 24 24 24 25 25 25 25 25 26 26 26 26 26 26 27 28 28 28
26 26 26 26 26 26 26 26 26 25 25 26 26 26 27 27 27 28 28 28 28 27 26 26 26 26 26 26 26 26 26 27 27 26 25 25 25 25 25 24 24 23 23 22 22 22 23 23 23 24 24 24 24 25 25 26 26 26 26 26 27 27 27 27 28 28 29 30 30
26 26 26 25 25 25 25 25 25 25 25 26 26 27 27 27 28 28 28 28 27 27 26 26 26 26 26 26 26 26 26 27 26 26 25 25 25 25 25 25 24 23 22 22 22 22 21 22 22 23 23 24 24 25 26 26 26 26 26 27 27 27 28 28 28 29 31 31 31
26 26 25 24 24 26 27 27 25 25 25 26 27 27 27 27 28 28 27 27 27 27 26 26 26 26 26 26 25 25 25 25 25 25 24 24 24 24 24 24 23 22 22 23 22 22 22 22 23 24 24 25 25 25 26 26 27 27 27 27 27 27 28 28 29 30 31 31 30
26 26 25 25 24 25 26 25 25 26 26 27 27 27 27 28 28 28 27 27 26 26 26 26 26 26 26 25 24 24 24 24 24 24 24 24 24 24 23 23 23 22 23 24 25 25 26 28 28 28 28 27 27 27 28 28 28 28 28 28 28 28 28 28 30 30 30 30 30
26 26 26 25 25 24 25 25 25 26 27 27 27 27 27 28 28 27 27 27 26 26 26 26 26 25 25 25 24 24 23 23 23 24 24 24 24 24 24 24 24 24 24 26 31 33 33 34 33 32 31 30 29 29 28 27 27 28 29 29 29 29 29 28 30 30 30 30 30
26 26 26 25 25 25 25 26 26 26 26 27 27 27 27 27 27 27 27 26 27 26 26 26 25 26 27 26 25 24 24 24 24 24 24 24 24 24 24 25 25 24 25 29 33 34 35 35 34 34 33 31 30 29 29 28 28 29 29 30 30 30 29 29 29 30 30 30 30
25 25 25 25 25 26 26 26 26 26 26 27 27 27 28 27 27 27 26 26 26 26 26 25 25 27 29 27 25 24 24 24 24 24 23 23 24 24 24 25 25 26 27 31 33 35 35 35 35 34 33 31 31 30 29 29 29 29 30 30 29 29 29 29 29 29 29 30 30
26 26 26 25 26 26 26 26 26 26 27 27 27 28 27 27 26 26 26 26 26 25 25 25 25 26 27 26 25 24 24 24 24 24 24 24 24 24 24 25 25 27 30 33 34 35 35 35 34 34 34 32 31 30 29 29 30 30 29 29 28 28 28 28 28 28 28 29 28
26 26 26 26 26 26 26 26 27 27 28 28 27 27 27 27 26 26 26 26 25 25 26 26 27 26 25 25 25 24 24 24 25 25 24 24 24 24 24 25 26 28 31 34 34 35 34 34 34 34 34 33 32 31 31 30 29 29 29 29 28 28 28 29 29 28 28 28 27
25 26 26 26 26 26 27 27 27 27 28 28 27 27 26 26 26 26 26 25 25 26 26 26 26 25 25 25 25 25 25 26 25 25 24 23 23 24 25 27 27 28 31 34 34 34 34 34 34 34 34 34 33 32 31 30 29 29 29 29 28 27 27 28 28 28 28 27 26
25 25 25 26 26 26 27 27 27 27 27 27 27 26 26 26 26 26 26 25 25 26 27 26 25 24 25 25 25 25 25 25 25 24 24 23 26 27 27 27 26 28 31 33 34 34 34 34 34 34 34 34 33 32 31 29 28 28 28 28 27 26 26 27 28 27 27 26 26
24 25 25 25 25 26 27 27 27 27 27 26 26 26 26 26 26 26 25 25 26 26 25 25 24 24 25 25 25 25 25 25 25 25 25 25 25 25 25 27 25 27 30 33 34 34 34 33 33 34 34 33 32 32 31 29 28 27 26 25 25 25 26 26 27 26 26 25 25
24 24 25 25 26 26 27 27 27 27 26 26 25 26 26 26 25 25 25 25 25 25 24 24 24 25 25 25 25 25 25 25 26 27 28 28 26 25 25 26 25 27 31 33 33 33 33 33 33 33 33 33 32 31 29 28 27 26 26 25 25 26 27 28 27 26 26 25 26
24 24 25 25 26 27 27 27 27 27 26 25 26 26 26 26 25 25 25 26 26 25 25 25 25 25 25 26 25 25 26 28 28 27 25 25 24 24 24 25 25 28 31 33 33 33 33 33 33 33 33 33 32 30 28 26 26 26 26 26 26 27 27 27 25 25 25 25 26
25 25 26 26 27 27 27 27 27 26 25 25 26 26 26 25 26 26 26 27 27 26 25 25 25 25 25 25 25 25 26 27 27 26 25 24 24 24 24 25 25 28 31 33 33 33 33 33 33 33 33 32 31 29 27 25 25 25 25 26 26 26 25 25 25 25 25 26 26
26 26 26 27 27 27 27 27 26 26 25 26 26 27 27 26 26 26 26 27 27 26 25 24 24 25 25 25 25 25 26 26 26 25 25 25 24 24 24 25 25 28 31 33 33 33 33 33 33 32 32 31 30 28 27 26 26 26 25 25 25 25 25 25 25 25 26 27 27
27 27 27 27 27 27 27 27 26 26 26 27 27 27 27 27 26 25 25 26 25 25 24 24 24 24 25 25 25 26 26 25 25 25 26 27 26 25 25 25 25 27 29 32 32 32 32 32 32 32 31 30 28 28 27 27 27 26 25 25 25 25 25 26 26 27 27 27 28
27 27 28 28 28 28 28 27 27 27 27 27 27 27 27 26 25 25 25 27 25 24 24 24 25 25 25 25 26 26 25 25 25 26 26 26 26 25 25 25 25 26 28 30 31 32 32 32 32 32 31 29 28 28 27 27 26 26 26 26 26 26 26 28 28 28 28 28 30
27 28 28 28 28 28 28 28 28 28 28 28 27 27 26 25 25 25 25 27 26 25 25 25 25 25 26 26 27 26 26 25 26 26 27 26 26 27 27 27 26 26 28 30 31 31 31 31 31 31 31 30 28 28 27 27 27 27 27 27 28 27 27 28 28 28 28 28 31
27 28 28 28 28 28 28 28 28 28 28 27 27 26 25 25 25 26 27 27 25 25 25 25 25 26 27 28 28 27 26 26 25 26 26 27 27 28 30 28 27 26 27 29 30 31 31 31 31 31 31 30 28 28 28 28 28 28 28 28 28 28 28 28 28 28 28 28 30
27 28 28 28 28 28 28 28 28 28 27 27 26 25 25 26 26 26 26 26 25 25 25 26 25 25 26 28 28 27 26 26 26 26 26 27 27 28 29 27 25 24 24 26 28 30 30 31 31 31 31 30 29 28 28 28 28 28 28 27 28 28 28 28 28 28 28 29 30